Regional Weather Roundup
Issued by NWS

Home | Current Version | Previous Version | Graphics & Text | Print | Product List | Glossary On
Versions: 1 2 3 4 5 6 7 8 9 10 11 12 13 14 15 16 17 18 19 20 21 22 23 24 25 26 27 28 29 30 31 32 33 34 35 36 37 38 39 40 41 42 43 44 45 46 47 48 49 50
000
ASUS43 KLOT 170108
RWRIL

ILLINOIS REGIONAL WEATHER ROUNDUP
NATIONAL WEATHER SERVICE CHICAGO/ROMEOVILLE IL
700 PM CST TUE JAN 16 2018

NOTE: "FAIR" INDICATES FEW OR NO CLOUDS BELOW 12,000 FEET WITH NO
SIGNIFICANT WEATHER AND/OR OBSTRUCTIONS TO VISIBILITY.

* THESE STATIONS ARE NOT UNDER NWS QUALITY CONTROL. THEY ALSO MAY NOT
  REPORT WEATHER SUCH AS PRECIPITATION OR FOG.

ILZ001-002-007-009-015-016-024-170200-
NORTHWEST ILLINOIS

CITY           SKY/WX    TMP DP  RH WIND       PRES   REMARKS
MOLINE         FAIR      10   4  76 W10       30.62R WCI  -4
STERLING*      FAIR      10   7  87 W12       30.59R WCI  -5
SAVANNA*       FAIR      12   7  79 NW6       30.60R WCI   3
$$

ILZ003-004-008-010-011-017-018-170200-
NORTH CENTRAL ILLINOIS

CITY           SKY/WX    TMP DP  RH WIND       PRES   REMARKS
ROCKFORD       FAIR      10   5  80 W7        30.57R WCI  -1
FREEPORT*      FAIR      10   5  79 W6        30.57R WCI   1
ROCHELLE*      FAIR      12   8  82 W8        30.56R WCI   0
DE KALB*       FAIR      13   8  81 NW13      30.53S WCI  -2
PERU*          FAIR      10   6  82 W9        30.58R WCI  -2
$$

ILZ005-006-012>014-019>023-170200-
NORTHEAST ILLINOIS

CITY           SKY/WX    TMP DP  RH WIND       PRES   REMARKS
CHICAGO-OHARE  FAIR      18   9  68 NW12      30.50S WCI   5
CHICAGO-MIDWAY FAIR      20  10  65 NW9       30.51R WCI   9
AURORA         FAIR      11   6  81 NW13      30.53S WCI  -4
LANSING*       FAIR      18  12  78 W7        30.51R WCI   9
JOLIET*        MOCLDY    14   9  82 W3        30.55R
WAUKEGAN       FAIR      18   9  68 NW6       30.50R WCI  10
DUPAGE AIRPORT FAIR      14   7  73 NW10      30.51S WCI   1
KANKAKEE*      FAIR       9   5  82 W12       30.55R WCI  -5
WHEELING       FAIR      18  10  71 NW8       30.52S WCI   8
MORRIS*        FAIR       7   3  83 W8        30.55R WCI  -5
ROMEOVILLE*    FAIR      14   9  80 NW9       30.53R WCI   2
NORTHERLY ISL    N/A     21  11  65 W10         N/A  WCI  10
$$

LMZ740>746-170200-
SOUTHERN LAKE MICHIGAN

STATION/POSITION SKY/WX   TEMP    WIND        PRES    VSBY  WAVE
                          AIR SEA DIR/SP/G                  HT/PER
                          (F)     (DEG/KT/KT) (MB)    (MI)  (FT/S)
HARRISON CRIB              23     310/ 17/ 19   N/A
BURNHAM HARBOR             21     280/ 10/ 14   N/A
CALUMET HARBOR             21     280/  9/ 13 1032.2R
BURNS HARBOR               22     320/ 17/ 28 1032.2R
MICHIGAN CITY                     140/  7/  9   N/A
$$

ILZ025>027-034>036-040-047-049-050-058-095>099-170200-
WEST-CENTRAL ILLINOIS

CITY           SKY/WX    TMP DP  RH WIND       PRES   REMARKS
QUINCY         CLEAR      6   0  76 NW8       30.65F WCI  -7
GALESBURG*     FAIR       5   1  85 W8        30.63S WCI  -9
MACOMB*        CLEAR      4  -1  83 W8        30.67S WCI -10
JACKSONVILLE*  LGT SNOW   8   1  75 W6        30.67R WCI  -2
PITTSFIELD*    CLOUDY    10   2  72 W5        30.68S WCI   1
$$

ILZ028>032-037-038-041>044-048-051>054-059>061-170200-
CENTRAL ILLINOIS

CITY           SKY/WX    TMP DP  RH WIND       PRES   REMARKS
PONTIAC        FAIR      10   8  91 W12       30.58S WCI  -4
BLOOMINGTON    FAIR       7   4  87 W14       30.58R WCI -10
DECATUR        CLOUDY     9   6  88 W10       30.62R WCI  -5
PEORIA         FAIR       8   2  76 W7        30.63R WCI  -3
LACON*         FAIR       9   4  81 W5        30.61R WCI   1
LINCOLN*       FAIR      10   6  82 W6        30.63R WCI   1
SPRINGFIELD    CLOUDY    11   4  73 W9        30.66R WCI  -2
TAYLORVILLE    CLOUDY     9   3  77 W13       30.65R WCI  -7
$$

ILZ033-039-045-046-055>057-062-063-170200-
EAST-CENTRAL ILLINOIS

CITY           SKY/WX    TMP DP  RH WIND       PRES   REMARKS
CHAMPAIGN      FAIR       4   0  83 W12       30.59R WCI -12
DANVILLE*      FLURRIES   7   2  82 SW9       30.56R WCI  -7
RANTOUL*       FAIR       8   4  86 W10       30.57S WCI  -7
MATTOON        CLOUDY     8   4  83 W12       30.61R WCI  -7
PARIS*         LGT SNOW   7   4  86 W9        30.61F WCI  -6
$$

ILZ079-100>102-170200-
SOUTHWEST ILLINOIS

CITY           SKY/WX    TMP DP  RH WIND       PRES   REMARKS
ALTON          CLEAR      7   3  85 W7        30.69R WCI  -5
BELLEVILLE     CLOUDY     9   0  65 NW8       30.69R WCI  -3
CAHOKIA*       FAIR       8  -1  66 NW8       30.71R WCI  -4
SPARTA*        CLOUDY    10   4  76 NW6       30.69R WCI   1
$$

ILZ064>066-069>071-074>076-080>082-084>086-088>090-092>094-170200-
SOUTH-CENTRAL ILLINOIS

CITY           SKY/WX    TMP DP  RH WIND       PRES   REMARKS
CARBONDALE     CLOUDY    11   4  73 NW7       30.68R WCI   0
CAIRO*         CLOUDY    11   2  67 N5        30.69S WCI   3
EFFINGHAM*     FLURRIES   9   4  81 W9        30.66R WCI  -5
MARION         CLOUDY     9   1  72 NW9       30.68S WCI  -5
MT. VERNON     FLURRIES   9   3  77 VRB3      30.67S
CENTRALIA*     FLURRIES  10   5  80 NW10      30.66S WCI  -4
SALEM*         CLOUDY    10   3  72 NW8       30.66S WCI  -2
METROPOLIS*    CLOUDY    10   1  67 CALM      30.69R
$$

ILZ067-068-072-073-078-083-087-091-170200-
SOUTHEAST ILLINOIS

CITY           SKY/WX    TMP DP  RH WIND       PRES   REMARKS
LAWRENCEVILLE  CLOUDY     7   2  80 CALM      30.66R
FLORA*         FLURRIES  10   4  76 NW9       30.67S WCI  -3
FAIRFIELD*     FLURRIES   9   3  77 CALM      30.66R
HARRISBURG*    LGT SNOW   6   1  80 W3        30.68S
ROBINSON*      FLURRIES   7   2  80 NW7       30.67R WCI  -4
CARMI*         FLURRIES   8   2  78 W7        30.66S WCI  -4
$$

ABBREVIATIONS USED IN REMARKS
   TC - TEMPERATURE IN CELSIUS
  WCI - WIND CHILL INDEX
   HX - HEAT INDEX
  VSB - VISIBILITY
$$





USA.gov is the U.S. government's official web portal to all federal, state and local government web resources and services.